x

9410230 - La Jolla, Ca (ljac1) Weather Station

7:12 - Fri 22nd Sep 2017 All times are PDT. -7 hours from GMT.

  • Wind
    9mph, 11mph gusts
  • Sea Temp 69°f
  • Luft Temp 62°f
  • Sea Pressure 1010.8mb
  • 9410230 - La Jolla, Ca
  • 9410230 - La Jolla, Ca

More Historic Weather Station data

Upgrade to MSW Pro to gain access to the past 30 days of data for over 8000 Wavebouys and Weather Stations around the globe.

Join

Comparision Forecast

View Surf forecast
   
Fr 09/22 7:12 9 11 mph 1010.8mb 69f 62f
7:06 8 10 mph 1010.7mb 69f 62f
7:00 8 11 mph 1010.8mb 69f 62f
6:54 8 10 mph 1010.7mb 69f 62f
6:48 8 11 mph 1010.7mb 69f 62f
6:42 8 13 mph 1010.6mb 69f 62f
6:36 7 11 mph 1010.6mb 69f 62f
6:30 9 10 mph 1010.6mb 69f 63f
6:24 8 10 mph 1010.6mb 69f 63f
6:18 8 10 mph 1010.6mb 69f 63f
6:12 8 10 mph 1010.5mb 69f 63f
6:06 7 10 mph 1010.5mb 69f 63f
6:00 10 11 mph 1010.4mb 69f 63f
5:54 8 10 mph 1010.3mb 69f 63f
5:48 8 10 mph 1010.3mb 69f 63f
5:42 6 8 mph 1010.2mb 69f 63f
5:36 6 7 mph 1010.2mb 69f 63f
5:30 6 6 mph 1010.1mb 69f 63f
5:24 6 8 mph 1010.2mb 69f 64f
5:18 5 8 mph 1010.2mb 68f 63f
5:12 6 9 mph 1010.2mb 68f 63f
5:06 7 8 mph 1010.2mb 68f 63f
4:54 6 9 mph 1010.1mb 69f 63f
4:48 6 7 mph 1010.1mb 69f 63f
4:42 6 9 mph 1010.1mb 70f 63f
4:36 6 8 mph 1010mb 70f 63f
4:30 6 11 mph 1010.1mb 70f 63f
4:24 9 13 mph 1010mb 70f 63f
4:18 10 14 mph 1010mb 70f 63f
4:12 10 11 mph 1010mb 70f 63f
4:06 9 14 mph 1010mb 70f 63f
4:00 11 14 mph 1009.9mb 70f 63f
3:54 11 14 mph 1009.9mb 70f 63f
3:48 10 14 mph 1010mb 70f 62f
3:42 10 13 mph 1010mb 70f 62f
3:36 10 14 mph 1009.9mb 70f 62f
3:30 10 15 mph 1009.9mb 70f 62f
3:24 9 13 mph 1009.9mb 70f 62f
3:18 10 13 mph 1009.9mb 70f 62f
3:12 10 14 mph 1009.9mb 70f 62f
3:06 9 14 mph 1009.9mb 70f 62f
3:00 10 13 mph 1010mb 70f 62f
2:54 10 11 mph 1010mb 70f 62f
2:48 9 14 mph 1010.1mb 70f 62f
2:42 10 14 mph 1010mb 70f 62f
2:36 8 13 mph 1010.1mb 70f 62f
2:30 8 13 mph 1010.1mb 70f 63f
2:24 9 11 mph 1010.1mb 70f 63f
2:18 9 13 mph 1010.1mb 70f 63f
2:12 9 10 mph 1010.2mb 70f 63f
2:06 7 11 mph 1010.3mb 70f 63f
2:00 8 10 mph 1010.3mb 70f 63f
1:54 9 10 mph 1010.3mb 70f 63f
1:48 8 10 mph 1010.4mb 70f 63f
1:42 6 8 mph 1010.4mb 70f 63f
1:36 6 8 mph 1010.4mb 70f 64f
1:30 7 8 mph 1010.3mb 70f 64f
1:24 7 9 mph 1010.3mb 70f 64f
1:18 6 8 mph 1010.4mb 70f 64f
1:12 7 8 mph 1010.3mb 70f 64f
1:06 6 8 mph 1010.2mb 70f 64f
1:00 6 8 mph 1010.2mb 70f 64f
12:42 6 7 mph 1010.2mb 70f 64f
12:36 5 6 mph 1010.3mb 70f 64f
12:30 6 7 mph 1010.4mb 70f 65f
12:24 5 6 mph 1010.4mb 70f 65f
12:18 6 7 mph 1010.3mb 70f 65f
12:12 5 6 mph 1010.4mb 70f 65f
12:06 5 6 mph 1010.5mb 70f 65f
12:00 1 5 mph 1010.4mb 70f 65f
Do 09/21 11:54 3 6 mph 1010.5mb 70f 65f
11:48 5 6 mph 1010.6mb 70f 65f
11:42 3 5 mph 1010.6mb 70f 65f
11:36 3 5 mph 1010.6mb 70f 65f
11:30 1 3 mph 1010.6mb 70f 65f
11:24 3 5 mph 1010.6mb 70f 65f
11:18 5 6 mph 1010.6mb 70f 66f
11:12 2 3 mph 1010.6mb 70f 66f
11:06 2 3 mph 1010.7mb 70f 66f
11:00 3 5 mph 1010.7mb 70f 66f
10:54 3 5 mph 1010.7mb 70f 66f
10:48 3 6 mph 1010.8mb 70f 66f
10:42 5 6 mph 1010.9mb - -
10:36 5 6 mph 1010.9mb - -
10:30 3 6 mph 1011mb 70f 66f
10:24 5 7 mph 1011mb 70f 66f
10:18 5 6 mph 1011mb 70f 66f
10:12 6 7 mph 1011mb 70f 66f
10:06 6 8 mph 1011mb 70f 66f
10:00 6 8 mph 1011mb 70f 66f
9:54 7 8 mph 1011mb 70f 66f
9:48 5 6 mph 1011mb 70f 66f
9:42 6 7 mph 1011mb 70f 66f
9:36 6 7 mph 1011mb 70f 66f
9:30 6 8 mph 1011mb 70f 66f
9:24 6 9 mph 1010.9mb 70f 66f
9:18 6 8 mph 1011mb 70f 66f
9:12 6 9 mph 1011mb 70f 66f
9:06 7 10 mph 1011mb 70f 66f
9:00 9 10 mph 1011mb 70f 66f
8:54 9 16 mph 1010.9mb 70f 66f
8:48 8 11 mph - - -
8:42 8 11 mph 1010.9mb 70f 66f
8:36 10 14 mph 1010.9mb 70f 66f
8:30 8 10 mph 1010.9mb 70f 66f
8:24 9 13 mph 1010.9mb 70f 66f
8:18 9 13 mph 1010.9mb 70f 66f
8:12 9 13 mph 1010.8mb 70f 66f
8:06 9 13 mph 1010.7mb 70f 66f
8:00 9 14 mph 1010.7mb 70f 66f
7:54 11 14 mph 1010.6mb 70f 66f
7:48 10 14 mph 1010.6mb 70f 66f
7:42 11 14 mph 1010.5mb 70f 66f
7:36 13 15 mph 1010.5mb 70f 66f
7:30 10 16 mph 1010.5mb 70f 66f
7:24 10 13 mph 1010.4mb 70f 66f
7:18 10 14 mph 1010.4mb 70f 66f
7:12 11 15 mph 1010.4mb 70f 66f
7:06 13 15 mph 1010.4mb 70f 66f
7:00 13 15 mph 1010.4mb 70f 66f
6:54 13 16 mph 1010.4mb 70f 67f
6:48 11 14 mph - - -
6:42 10 14 mph 1010.4mb 70f 67f
6:36 13 16 mph 1010.4mb 70f 67f
6:30 13 15 mph 1010.4mb 70f 67f
6:24 11 15 mph 1010.4mb 71f 68f
6:18 13 15 mph 1010.4mb 70f 68f
6:12 13 15 mph 1010.4mb 70f 68f
6:06 14 16 mph 1010.4mb 70f 68f
6:00 13 15 mph 1010.4mb 70f 68f
5:54 10 15 mph 1010.4mb 70f 68f
5:48 14 16 mph 1010.5mb 70f 68f
5:42 13 15 mph 1010.4mb 70f 68f
5:36 13 15 mph 1010.4mb 70f 68f
5:30 14 16 mph 1010.4mb 70f 69f
5:24 13 16 mph 1010.5mb 70f 69f
5:18 9 14 mph 1010.5mb 70f 69f
5:12 13 15 mph 1010.5mb 70f 69f
5:06 13 15 mph 1010.4mb 70f 69f
5:00 13 15 mph 1010.5mb 70f 69f
4:54 11 15 mph 1010.5mb 70f 69f
4:48 15 17 mph - - -
4:42 11 15 mph 1010.5mb 70f 69f
4:36 11 15 mph 1010.5mb 70f 69f
4:30 13 16 mph 1010.5mb 70f 69f
4:24 11 14 mph 1010.5mb 70f 69f
4:18 9 14 mph - - -
4:12 13 15 mph 1010.6mb 70f 69f
4:06 14 16 mph 1010.6mb 70f 69f
4:00 13 16 mph 1010.6mb 70f 69f
3:54 11 16 mph 1010.6mb 70f 69f
3:48 13 15 mph - - -
3:42 14 17 mph 1010.6mb 70f 69f
3:36 14 17 mph 1010.6mb 70f 69f
3:30 15 17 mph 1010.6mb 70f 69f
3:24 13 16 mph 1010.7mb 70f 69f
3:18 15 18 mph 1010.7mb 70f 69f
3:12 13 17 mph 1010.7mb 70f 69f
3:06 15 17 mph 1010.7mb 70f 69f
3:00 13 15 mph 1010.7mb 70f 69f
2:54 13 16 mph 1010.7mb 70f 69f
2:48 13 16 mph - - -
2:42 13 16 mph 1010.7mb 70f 69f
2:36 15 17 mph 1010.8mb 70f 69f
2:30 11 14 mph 1010.8mb 70f 69f
2:24 10 13 mph 1010.7mb 70f 69f
2:18 11 16 mph 1010.9mb 70f 69f
2:12 14 16 mph 1010.9mb 70f 69f
2:06 11 14 mph 1010.9mb 70f 69f
2:00 11 15 mph 1010.9mb 70f 69f
1:54 11 14 mph 1010.8mb 70f 69f
1:48 11 13 mph 1010.9mb 70f 69f
1:42 11 14 mph 1010.9mb 70f 69f
1:36 11 14 mph 1011mb 70f 69f
1:30 11 14 mph 1011.1mb 70f 69f
1:24 9 13 mph 1011.1mb 70f 69f
1:18 8 8 mph 1011.2mb 70f 69f
1:12 8 9 mph 1011.2mb 70f 69f
1:06 8 11 mph 1011.3mb 70f 69f
1:00 10 11 mph 1011.3mb 70f 69f
12:54 9 11 mph 1011.4mb 70f 69f
12:48 7 9 mph 1011.5mb 70f 69f
12:42 7 9 mph 1011.5mb 70f 69f
12:36 7 9 mph 1011.5mb 69f 69f
12:30 7 8 mph 1011.6mb 69f 69f
12:24 7 8 mph 1011.7mb 69f 68f
12:18 6 8 mph 1011.7mb 69f 68f
12:12 5 6 mph 1011.8mb 69f 68f
12:06 5 7 mph 1011.8mb 69f 68f
12:00 6 9 mph 1011.8mb 69f 68f
11:54 6 9 mph 1011.9mb 70f 68f
11:48 6 10 mph 1011.9mb 70f 68f
11:42 8 10 mph 1012mb 70f 67f
11:36 9 11 mph 1012mb 70f 67f
11:30 9 14 mph 1012mb 70f 67f
11:24 11 15 mph 1012mb 70f 67f
11:18 11 13 mph 1012mb 70f 67f
11:12 9 11 mph 1012mb 70f 67f
11:06 10 13 mph 1012mb 70f 67f
11:00 11 15 mph 1012mb 70f 67f
10:54 10 16 mph 1012mb 70f 69f
10:48 13 16 mph 1012mb 70f 69f
10:42 13 17 mph 1012mb 70f 69f
10:36 14 16 mph 1012mb 70f 69f
10:30 11 14 mph 1012mb 70f 69f
10:24 9 16 mph 1012mb 70f 69f
10:18 11 15 mph 1012mb 70f 69f
10:12 10 15 mph 1012mb 70f 69f
10:06 10 15 mph 1012mb 70f 69f
10:00 9 11 mph 1012mb 70f 69f
9:54 9 13 mph 1012mb 70f 69f
9:48 11 13 mph 1012mb 70f 69f
9:42 13 15 mph 1012.1mb 70f 69f
9:36 10 15 mph 1012mb 70f 69f
9:30 11 15 mph 1012mb 70f 69f
9:24 11 14 mph 1012mb 70f 69f
9:18 10 15 mph 1012mb 70f 69f
9:12 10 14 mph 1012mb 70f 69f
9:06 11 16 mph 1012mb 70f 69f
9:00 14 16 mph 1011.9mb 70f 69f
8:54 10 14 mph 1011.8mb 70f 69f
8:48 10 13 mph 1011.8mb 70f 69f
8:42 9 13 mph 1011.7mb 70f 69f
8:36 11 15 mph 1011.7mb 70f 69f
8:30 9 14 mph 1011.6mb 70f 69f
8:24 11 15 mph 1011.6mb 70f 69f
8:18 10 14 mph 1011.6mb 70f 68f
8:12 9 13 mph 1011.5mb 70f 68f
8:06 9 13 mph 1011.5mb 70f 68f
8:00 8 13 mph 1011.5mb 70f 68f
7:54 6 11 mph 1011.4mb 70f 68f
7:48 9 11 mph 1011.3mb 70f 68f
7:42 7 10 mph 1011.3mb 70f 68f
7:36 6 10 mph 1011.2mb 70f 68f
7:30 9 14 mph 1011.2mb 70f 68f
7:24 10 14 mph 1011.2mb 70f 68f
7:18 9 13 mph 1011.1mb 70f 68f
7:12 10 13 mph 1011.1mb 70f 68f
7:06 7 9 mph 1011.2mb 70f 68f
7:00 7 9 mph 1011.2mb 70f 68f
6:54 8 9 mph 1011.1mb 70f 68f
6:48 7 9 mph 1011mb 70f 68f
6:42 7 8 mph 1011mb 70f 68f
6:36 7 11 mph 1010.9mb 70f 68f
6:30 11 13 mph 1010.9mb 70f 68f
6:24 9 10 mph 1010.9mb 70f 68f
6:18 8 10 mph 1011mb 70f 68f
6:12 7 8 mph 1010.9mb 70f 68f
6:06 6 7 mph 1010.9mb 70f 68f
6:00 5 8 mph 1010.9mb 70f 68f
5:54 8 10 mph 1010.9mb 70f 68f
5:48 8 9 mph 1010.9mb 70f 68f
5:42 6 8 mph 1010.9mb 70f 68f
5:36 3 7 mph 1010.8mb 70f 68f
5:30 6 9 mph 1010.7mb 70f 68f
5:24 7 10 mph 1010.5mb 70f 68f
5:18 8 10 mph 1010.4mb 70f 68f
5:12 8 10 mph 1010.4mb 70f 68f
5:06 8 10 mph 1010.4mb 70f 68f
5:00 8 9 mph 1010.4mb 70f 68f
4:54 7 10 mph 1010.4mb 70f 68f
4:48 8 10 mph 1010.4mb 70f 68f
4:42 7 11 mph 1010.4mb 70f 68f
4:36 9 10 mph 1010.4mb 70f 68f
4:30 7 9 mph 1010.3mb 70f 68f
4:24 8 10 mph 1010.3mb 70f 68f
4:18 8 11 mph 1010.4mb 70f 68f
4:12 9 11 mph 1010.3mb 70f 68f
4:06 9 10 mph 1010.3mb 70f 68f
4:00 8 11 mph 1010.3mb 70f 68f
3:54 7 8 mph 1010.3mb 70f 68f
3:48 6 9 mph 1010.3mb 70f 68f
3:42 7 9 mph 1010.3mb 70f 68f
3:36 7 9 mph 1010.4mb 70f 68f
3:30 7 9 mph 1010.4mb 70f 68f
3:24 6 8 mph 1010.5mb 70f 68f
3:18 5 7 mph 1010.5mb 70f 68f
3:12 6 7 mph 1010.5mb 70f 68f
3:06 6 7 mph 1010.5mb 70f 68f
3:00 3 5 mph 1010.5mb 70f 68f
2:54 2 5 mph 1010.5mb 70f 68f
2:48 2 3 mph 1010.5mb 70f 68f
2:42 3 6 mph 1010.5mb 70f 68f
2:36 5 6 mph 1010.5mb 70f 68f
2:30 5 6 mph 1010.6mb 70f 68f
2:24 3 5 mph 1010.6mb 70f 68f
2:18 5 6 mph 1010.7mb 70f 68f
2:12 6 8 mph 1010.7mb 70f 68f
2:06 5 8 mph 1010.7mb 70f 68f
2:00 6 8 mph 1010.7mb 70f 68f
1:54 7 9 mph 1010.8mb 70f 68f
1:48 8 9 mph 1010.8mb 70f 68f
1:42 7 9 mph 1010.8mb 70f 68f
1:36 8 10 mph 1010.9mb 70f 68f
1:30 7 9 mph 1011mb 70f 68f
1:24 7 9 mph 1011mb 70f 68f
1:18 8 10 mph 1011mb 70f 68f
1:12 7 9 mph 1010.9mb 70f 68f
1:06 8 10 mph 1011mb 70f 68f
1:00 6 9 mph 1011mb 70f 68f
12:54 8 10 mph 1011.1mb 70f 68f
12:48 7 9 mph 1011.1mb 70f 68f
12:42 8 9 mph 1011.2mb 70f 68f
12:36 7 8 mph 1011.2mb 70f 68f
12:30 7 9 mph 1011.2mb 70f 68f
12:24 8 9 mph 1011.2mb 70f 68f
12:18 7 9 mph 1011.2mb 70f 68f
12:12 7 8 mph 1011.2mb 70f 68f
12:06 8 11 mph 1011.2mb 70f 68f
12:00 7 9 mph 1011.2mb 70f 68f
Mi 09/20 11:54 7 9 mph 1011.2mb 70f 68f
11:48 7 8 mph - - -
11:42 8 9 mph 1011.1mb 70f 68f
11:36 6 8 mph 1011.2mb 70f 68f
11:30 7 9 mph 1011.3mb 70f 68f
11:24 6 7 mph 1011.3mb 70f 68f
11:18 5 6 mph 1011.2mb 70f 68f
11:12 5 7 mph 1011.1mb 70f 68f
11:06 5 6 mph 1011.1mb 70f 68f
11:00 5 6 mph 1011.1mb 70f 67f
10:54 6 7 mph 1011.1mb 70f 67f
10:48 6 7 mph 1011.1mb 70f 67f
10:42 6 8 mph 1011mb 70f 67f
10:36 6 7 mph 1011.1mb 70f 67f
10:30 7 8 mph 1011mb 70f 67f
10:24 5 7 mph 1011.1mb 70f 67f
10:18 6 7 mph 1011.1mb 70f 67f
10:12 5 6 mph 1011.2mb 70f 67f
10:06 6 7 mph 1011.1mb 70f 67f
10:00 5 7 mph 1011.1mb 70f 67f
9:54 5 7 mph 1011mb 70f 68f
9:48 6 7 mph 1011mb 70f 68f
9:42 5 7 mph 1011mb 70f 68f
9:36 6 7 mph 1011mb 70f 68f
9:30 7 8 mph 1011mb 70f 68f
9:24 8 10 mph 1010.9mb 70f 68f
9:18 6 8 mph 1010.9mb 70f 68f
9:12 5 6 mph 1010.9mb 70f 68f
9:06 6 8 mph 1010.9mb 70f 68f
9:00 6 7 mph 1010.9mb 70f 68f
8:54 6 7 mph 1010.8mb 70f 68f
8:48 7 8 mph - - -
8:42 6 9 mph 1010.7mb 70f 68f
8:36 7 8 mph 1010.7mb 70f 68f
8:30 7 9 mph 1010.7mb 70f 68f
8:24 7 9 mph 1010.6mb 70f 68f
8:18 7 10 mph 1010.5mb 70f 68f
8:12 8 10 mph 1010.5mb 70f 68f
8:06 8 9 mph 1010.5mb 70f 68f
8:00 8 10 mph 1010.4mb 71f 68f
7:54 9 11 mph 1010.4mb 71f 68f
7:48 9 10 mph 1010.4mb 71f 68f
7:42 9 11 mph 1010.3mb 71f 68f
7:36 9 11 mph 1010.2mb 71f 68f
7:30 7 9 mph 1010.2mb 71f 68f
7:24 7 9 mph 1010.1mb 71f 68f
7:18 7 8 mph 1010mb 71f 68f
7:12 7 8 mph 1010mb 71f 68f
7:06 7 9 mph 1010.1mb 71f 68f
7:00 8 9 mph 1010.1mb 71f 68f
6:54 8 10 mph 1010.2mb 71f 68f
6:48 8 10 mph 1010.2mb - -
6:42 7 9 mph 1010.2mb 71f 69f
6:36 9 11 mph 1010.1mb 71f 68f
6:30 8 10 mph 1010.1mb 71f 69f
6:24 9 10 mph 1010.1mb 71f 69f
6:18 7 8 mph 1010mb 71f 69f
6:12 6 9 mph 1010.1mb 71f 69f
6:06 7 10 mph 1010.1mb 71f 69f
6:00 6 10 mph 1010.2mb 71f 69f
5:54 9 11 mph 1010.3mb 71f 69f
5:48 10 13 mph - - -
5:42 10 13 mph 1010.4mb 71f 69f
5:36 10 13 mph 1010.5mb 71f 69f
5:30 9 14 mph 1010.5mb 71f 69f
5:24 10 13 mph 1010.5mb 71f 69f
5:18 9 11 mph 1010.6mb 71f 69f
5:12 11 15 mph 1010.6mb 71f 69f
5:06 11 15 mph 1010.6mb 71f 69f
5:00 10 16 mph 1010.5mb 71f 69f
4:54 13 15 mph 1010.5mb 71f 69f
4:48 14 16 mph 1010.5mb - -
4:42 10 14 mph 1010.5mb 71f 69f
4:36 11 14 mph 1010.6mb 71f 69f
4:30 11 16 mph 1010.6mb 71f 69f
4:24 11 15 mph 1010.6mb 71f 69f
4:18 13 15 mph 1010.7mb 71f 69f
4:12 11 15 mph 1010.7mb 71f 69f
4:06 11 15 mph 1010.7mb 71f 69f
4:00 13 15 mph 1010.7mb 71f 69f
3:54 13 16 mph 1010.7mb 71f 69f
3:48 14 15 mph - - -
3:42 14 15 mph 1010.8mb 71f 69f
3:36 11 15 mph 1010.8mb 71f 69f
3:30 13 16 mph 1010.8mb 71f 69f
3:24 11 16 mph 1010.9mb 71f 69f
3:18 14 16 mph 1010.9mb 71f 69f
3:12 14 17 mph 1011.1mb 71f 69f
3:06 13 17 mph 1011.1mb 71f 69f
3:00 14 16 mph 1011.1mb 71f 69f
2:54 14 17 mph 1011.2mb 71f 69f
2:48 15 18 mph - - -
2:42 13 17 mph 1011.3mb 71f 69f
2:36 14 17 mph 1011.4mb 71f 69f
2:30 15 17 mph 1011.4mb 71f 69f
2:24 15 17 mph 1011.4mb 71f 69f
2:18 16 18 mph 1011.5mb 71f 69f
2:12 15 17 mph 1011.6mb 71f 69f
2:06 15 20 mph 1011.7mb 71f 69f
2:00 16 20 mph 1011.7mb 71f 69f
1:54 15 18 mph 1011.8mb 71f 69f
1:48 16 20 mph 1011.9mb 71f 69f
1:42 16 18 mph 1012mb 71f 70f
1:36 16 20 mph 1012mb 70f 70f
1:30 17 20 mph 1012.1mb 70f 70f
1:24 17 18 mph 1012.2mb 70f 70f
1:18 14 17 mph 1012.2mb 70f 70f
1:12 15 16 mph 1012.3mb 70f 70f
1:06 14 16 mph 1012.4mb 70f 70f
1:00 15 17 mph 1012.4mb 70f 70f
12:54 15 17 mph 1012.4mb 70f 70f
12:48 16 18 mph 1012.5mb 70f 70f
12:42 16 18 mph 1012.6mb 70f 70f
12:36 15 17 mph 1012.6mb 70f 70f
12:30 16 17 mph 1012.7mb 70f 70f
12:24 14 16 mph 1012.8mb 70f 70f
12:18 14 15 mph 1012.8mb 70f 70f
12:12 14 15 mph 1012.8mb 69f 70f
12:06 13 16 mph 1012.8mb 69f 70f
12:00 13 16 mph 1012.9mb 69f 70f
11:54 13 16 mph 1012.9mb 69f 70f
11:48 13 16 mph 1012.9mb 69f 70f
11:42 10 15 mph 1012.9mb 69f 70f
11:36 9 11 mph 1013mb 69f 70f
11:30 8 13 mph 1013mb 69f 70f
11:24 8 11 mph 1013.1mb 69f 71f
11:18 11 14 mph 1013.1mb 69f 70f
11:12 11 14 mph 1013.1mb 69f 70f
11:06 11 14 mph 1013.1mb 69f 70f
11:00 9 13 mph 1013.1mb 69f 70f
10:54 9 13 mph 1013.1mb 69f 70f
10:48 10 15 mph 1013.1mb 69f 69f
10:42 11 14 mph 1013.2mb 69f 69f
10:36 14 16 mph 1013.2mb 69f 69f
10:30 14 18 mph 1013.3mb 70f 69f
10:24 11 15 mph 1013.3mb 70f 69f
10:18 14 20 mph 1013.3mb 70f 69f
10:12 14 18 mph 1013.3mb 70f 69f
10:06 13 16 mph 1013.2mb 70f 69f
10:00 14 17 mph 1013.2mb 70f 69f
9:54 15 17 mph 1013.2mb 70f 68f
9:48 14 17 mph 1013.1mb 70f 68f
9:42 10 16 mph 1013.1mb 70f 69f
9:36 13 15 mph 1013.1mb 70f 69f
9:30 11 14 mph 1013mb 70f 69f
9:24 10 14 mph 1013mb 70f 69f
9:18 13 17 mph 1013mb 70f 69f
9:12 13 15 mph 1012.8mb 70f 69f
9:06 11 14 mph 1012.9mb 70f 69f
9:00 11 14 mph 1012.9mb 70f 68f
8:54 11 15 mph 1012.8mb 70f 68f
8:48 10 14 mph 1012.7mb 70f 69f
8:42 9 13 mph 1012.6mb 70f 69f
8:36 13 15 mph 1012.5mb 70f 69f
8:30 10 13 mph 1012.4mb 70f 69f
8:24 10 13 mph 1012.4mb 70f 69f
8:18 11 14 mph 1012.3mb 70f 69f
8:12 9 13 mph 1012.2mb 70f 69f
8:06 9 13 mph 1012.2mb 70f 69f
8:00 10 13 mph 1012.1mb 70f 69f
7:54 8 10 mph 1012mb 70f 69f
7:48 10 13 mph 1011.9mb 70f 69f
7:42 11 14 mph 1011.9mb 69f 69f
7:36 13 14 mph 1011.8mb 69f 69f
7:30 7 9 mph 1011.7mb 69f 69f
7:24 5 7 mph 1011.6mb 69f 69f
7:18 1 3 mph 1011.5mb 68f 69f
7:12 1 2 mph 1011.4mb 68f 69f
7:06 1 3 mph 1011.4mb 67f 69f
7:00 1 2 mph 1011.4mb 67f 69f
6:54 2 2 mph 1011.3mb 68f 69f
6:48 2 6 mph 1011.2mb 69f 69f
6:42 3 5 mph 1011.2mb 69f 69f
6:36 2 5 mph 1011.2mb 69f 69f
6:30 3 5 mph 1011.1mb 69f 69f
6:24 5 5 mph 1011.1mb 68f 69f
6:18 5 7 mph 1011mb 68f 69f
6:12 6 8 mph 1010.9mb 67f 69f
6:06 6 9 mph 1010.9mb 67f 69f
6:00 6 8 mph 1010.9mb 67f 69f
5:54 6 6 mph 1010.8mb 67f 69f
5:48 2 3 mph 1010.9mb 67f 69f
5:42 3 5 mph 1010.8mb 66f 69f
5:36 3 5 mph 1010.8mb 67f 69f
5:30 5 5 mph 1010.7mb 67f 69f
5:24 5 7 mph 1010.7mb 69f 69f
5:18 3 5 mph 1010.7mb 70f 69f
5:12 2 6 mph 1010.6mb 70f 69f
5:06 6 7 mph 1010.7mb 70f 69f
5:00 5 7 mph 1010.7mb 70f 69f
4:54 5 7 mph 1010.7mb 70f 69f
4:48 5 6 mph 1010.7mb 70f 69f
4:42 5 7 mph 1010.7mb 70f 69f
4:36 6 7 mph 1010.7mb 70f 69f
4:30 6 8 mph 1010.7mb 70f 69f
4:24 7 8 mph 1010.7mb 70f 69f
4:18 7 9 mph 1010.7mb 70f 69f
4:12 8 9 mph 1010.7mb 70f 69f
4:06 7 8 mph 1010.7mb 70f 69f
4:00 7 8 mph 1010.7mb 70f 69f
3:54 7 9 mph 1010.7mb 70f 69f
3:48 7 9 mph 1010.7mb 70f 69f
3:42 7 9 mph 1010.8mb 70f 69f
3:36 7 9 mph 1010.8mb 70f 69f
3:30 7 9 mph 1010.8mb 70f 69f
3:24 9 11 mph 1010.9mb 70f 69f
3:18 8 9 mph 1010.9mb 70f 69f
3:12 7 8 mph 1010.9mb 70f 69f
3:06 7 9 mph 1010.9mb 70f 69f
3:00 6 11 mph 1010.9mb 70f 69f
2:54 7 9 mph 1011mb 70f 69f
2:48 8 9 mph 1011mb 71f 69f
2:42 8 9 mph 1011.1mb 71f 69f
2:36 8 8 mph 1011.1mb 71f 69f
2:30 6 8 mph 1011.1mb 71f 69f
2:24 7 8 mph 1011.2mb 71f 69f
2:18 3 5 mph 1011.2mb 71f 69f
2:12 5 7 mph 1011.3mb 71f 69f
2:06 6 7 mph 1011.4mb 71f 69f
2:00 6 7 mph 1011.4mb 71f 69f
1:54 7 7 mph 1011.4mb 71f 69f
1:48 5 7 mph 1011.4mb 71f 69f
1:42 6 7 mph 1011.4mb 71f 69f
1:36 5 6 mph 1011.4mb 71f 69f
1:30 5 5 mph 1011.5mb 71f 69f
1:24 2 3 mph 1011.5mb 71f 69f
1:18 2 3 mph 1011.6mb 71f 69f
1:12 2 2 mph 1011.6mb 71f 69f
1:06 2 2 mph 1011.6mb 71f 69f
1:00  -  2 mph 1011.6mb 71f 69f
12:54 2 2 mph 1011.6mb 71f 69f
12:48 1 2 mph 1011.6mb 71f 69f
12:42 1 2 mph 1011.7mb 71f 69f
12:36 1 2 mph 1011.8mb 71f 69f
12:30 1 2 mph 1011.8mb 71f 69f
12:24 1 2 mph 1011.7mb 71f 69f
12:18 2 3 mph 1011.7mb 71f 69f
12:12 2 3 mph 1011.8mb 71f 69f
12:06 2 3 mph 1011.8mb 71f 69f
12:00 2 3 mph 1011.8mb 71f 69f
Di 09/19 11:54 2 3 mph 1011.8mb 71f 69f
11:48 2 3 mph 1011.8mb 71f 69f
11:42 3 3 mph 1011.9mb 71f -
11:36 2 3 mph 1011.8mb 71f -
11:30 2 3 mph 1011.9mb 71f 69f
11:24 2 2 mph 1011.9mb 71f 69f
11:18 1 2 mph 1011.9mb 71f 69f
11:12 2 2 mph 1011.9mb 71f 69f
11:06 2 2 mph 1011.8mb 71f 69f
11:00 1 2 mph 1011.8mb 71f 69f
10:54 1 1 mph 1011.8mb 71f 69f
10:48 1 2 mph 1011.8mb 71f 69f
10:42 1 2 mph 1011.8mb - -
10:36 1 2 mph 1011.8mb - -
10:30 2 2 mph 1011.8mb 71f 69f
10:24 2 3 mph 1011.8mb 71f 69f
10:18 2 2 mph 1011.8mb 72f 69f
10:12 1 2 mph 1011.9mb 72f 69f
10:06 2 2 mph 1011.9mb 72f 69f
10:00 2 3 mph 1011.9mb 72f 69f
9:54 2 3 mph 1011.9mb 71f 69f
9:48 3 5 mph 1011.9mb 71f 69f
9:42 3 3 mph 1011.8mb 72f 69f
9:36 2 3 mph 1011.9mb 72f 69f
9:30 3 3 mph 1011.8mb 72f 69f
9:24  -  2 mph 1011.8mb 72f 69f
9:18 2 3 mph 1011.8mb 72f 69f
9:12 2 3 mph 1011.8mb 72f 69f
9:06 3 6 mph 1011.7mb 72f 69f
9:00 6 7 mph 1011.8mb 72f 69f
8:54 3 8 mph 1011.7mb 72f 69f
8:48 7 8 mph 1011.7mb 72f 69f
8:42 2 7 mph 1011.7mb 71f 70f
8:36 5 6 mph 1011.7mb 71f 70f
8:30 6 7 mph 1011.7mb 72f 69f
8:24 2 2 mph 1011.6mb 72f 69f
8:18 2 2 mph 1011.6mb 72f 69f
8:12 2 3 mph 1011.5mb 72f 69f
8:06 3 5 mph 1011.4mb 72f 69f
8:00 3 3 mph 1011.3mb 72f 69f
7:54 3 5 mph 1011.3mb 72f 69f
7:48 3 6 mph 1011.2mb 72f 69f
7:42 3 7 mph 1011.2mb 72f 69f
7:36 5 6 mph 1011.2mb 72f 69f
7:30 3 11 mph 1011.1mb 72f 69f
7:24 8 10 mph 1011.1mb 72f 69f
7:18 5 6 mph 1011.1mb 72f 69f
7:12 6 6 mph 1011mb 73f 69f
7:06 1 1 mph 1011mb 73f 69f
7:00  -  2 mph 1011mb 73f 69f
6:54 2 8 mph 1011.1mb 73f 69f
6:48 7 8 mph - - -
6:42 7 8 mph 1011.1mb 73f 70f
6:36 6 7 mph 1011.2mb 73f 70f
6:30 5 9 mph 1011.1mb 73f 70f
6:24 6 6 mph 1011.1mb 73f 70f
6:18 3 6 mph 1011.1mb 73f 70f
6:12 3 6 mph 1011.1mb 73f 70f
6:06 5 6 mph 1011.1mb 73f 69f
6:00 6 10 mph 1011.1mb 72f 69f
5:54 5 6 mph 1011.1mb 72f 70f
5:48 6 7 mph 1011.1mb 72f 70f
5:42 5 7 mph 1011.1mb 72f 70f
5:36 5 7 mph 1011.2mb 72f 69f
5:30 5 8 mph 1011.2mb 72f 69f
5:24 6 7 mph 1011.2mb 72f 69f
5:18 6 9 mph 1011.2mb 72f 69f
5:12 8 10 mph 1011.3mb 72f 69f
5:06 3 9 mph 1011.3mb 72f 69f
5:00 7 8 mph 1011.3mb 72f 69f
4:54 8 10 mph 1011.3mb 72f 70f
4:48 7 8 mph 1011.3mb - -
4:42 8 10 mph 1011.3mb 72f 70f
4:36 7 11 mph 1011.2mb 72f 70f
4:30 8 11 mph 1011.2mb 71f 70f
4:24 10 13 mph 1011.3mb 71f 70f
4:18 10 14 mph 1011.3mb 71f 70f
4:12 11 14 mph 1011.3mb 71f 69f
4:06 11 13 mph 1011.3mb 71f 69f
4:00 10 14 mph 1011.4mb 71f 70f
3:54 10 13 mph 1011.4mb 71f 70f
3:48 11 14 mph - - -
3:42 11 14 mph 1011.4mb 71f 69f
3:36 11 14 mph 1011.4mb 71f 70f
3:30 11 14 mph 1011.4mb 71f -
3:24 11 13 mph 1011.4mb 71f -
3:18 13 14 mph 1011.5mb 71f -
3:12 13 15 mph 1011.5mb 71f 69f
3:06 11 14 mph 1011.6mb 71f 69f
3:00 11 14 mph 1011.7mb 71f 70f
2:54 13 14 mph 1011.8mb 71f 70f
2:48 11 14 mph - - -
2:42 13 15 mph 1011.9mb 71f 69f
2:36 13 16 mph 1011.9mb 71f 70f
2:30 10 13 mph 1012mb 72f 70f
2:24 10 14 mph 1012mb 72f 70f
2:18 10 13 mph 1012mb 72f 70f
2:12 11 13 mph 1012.1mb 72f 70f
2:06 10 13 mph 1012.1mb 72f 70f
2:00 9 11 mph 1012.1mb 72f 70f
1:54 10 11 mph 1012.1mb 72f 70f
1:48 9 11 mph 1012.2mb 72f 70f
1:42 9 11 mph 1012.3mb 72f 70f
1:36 9 11 mph 1012.4mb 72f 70f
1:30 10 11 mph 1012.5mb 72f 70f
1:24 9 10 mph 1012.5mb 72f 69f
1:18 9 10 mph 1012.6mb 72f 69f
1:12 10 11 mph 1012.7mb 72f 69f
1:06 10 13 mph 1012.8mb 71f 69f
1:00 10 13 mph 1012.9mb 71f 69f
12:54 11 14 mph 1012.9mb 72f 69f
12:48 13 14 mph 1013mb 72f 69f
12:42 13 15 mph 1013mb 72f 69f
12:36 11 15 mph 1013.1mb 71f 69f
12:30 11 14 mph 1013.1mb 71f 69f
12:24 11 13 mph 1013.2mb 71f 69f
12:18 11 13 mph 1013.2mb 71f 69f
12:12 11 14 mph 1013.2mb 71f 69f
12:06 13 14 mph 1013.2mb 71f 69f
12:00 14 15 mph 1013.2mb 71f 69f
11:54 14 16 mph 1013.2mb 71f 69f
11:48 14 14 mph 1013.3mb 71f 69f
11:42 13 14 mph 1013.4mb 71f 69f
11:36 13 14 mph 1013.5mb 71f 69f
11:30 11 14 mph 1013.6mb 71f 69f
11:24 13 14 mph 1013.7mb 71f 69f
11:18 11 14 mph 1013.7mb 71f 69f
11:12 11 14 mph 1013.7mb 71f 69f
11:06 13 14 mph 1013.8mb 70f 69f
11:00 13 14 mph 1013.8mb 69f 69f
10:54 11 14 mph 1013.9mb 69f 69f
10:48 10 14 mph 1013.9mb 69f 69f
10:42 11 13 mph 1013.8mb 68f 70f
10:36 11 13 mph 1013.9mb 68f 70f
10:30 9 11 mph 1013.8mb 68f 70f
10:24 6 9 mph 1013.9mb 68f 70f
10:18 9 10 mph 1013.8mb 68f 70f
10:12 7 10 mph 1013.8mb 69f 70f
10:06 8 11 mph 1013.8mb 69f 70f
10:00 9 13 mph 1013.8mb 71f 69f
9:54 9 11 mph 1013.9mb 70f 69f
9:48 9 11 mph 1014mb 70f 69f
9:42 8 9 mph 1014mb 70f 69f
9:36 7 9 mph 1014mb 70f 70f
9:30 7 9 mph 1014mb 69f 70f
9:24 7 9 mph 1013.9mb 70f 70f
9:18 7 7 mph 1013.9mb 71f 70f
9:12 6 6 mph 1013.8mb 71f 70f
9:06 5 6 mph 1013.8mb 71f 70f
9:00  -  2 mph 1013.7mb 71f 71f
8:54 2 5 mph 1013.7mb 71f 70f
8:48 3 5 mph 1013.7mb 70f 70f
8:42 2 5 mph 1013.7mb 70f 70f
8:36 2 5 mph 1013.6mb 70f 70f
8:30 5 7 mph 1013.6mb 70f 70f
8:24 5 6 mph 1013.5mb 70f 70f
8:18 5 6 mph 1013.4mb 70f 70f
8:12 5 7 mph 1013.4mb 70f 69f
8:06 3 6 mph 1013.3mb 70f 69f
8:00 5 6 mph 1013.3mb 70f 69f
7:54 5 8 mph 1013.3mb 70f 69f
7:48 6 7 mph 1013.3mb 70f 69f
7:42 6 7 mph 1013.2mb 70f 69f
7:36 6 8 mph 1013.2mb 70f 69f
7:30 5 7 mph 1013.1mb 71f 69f
7:24 5 6 mph 1013mb 71f 69f
7:18 5 6 mph 1013mb 71f 69f
7:12 5 7 mph 1013mb 71f 69f
7:06 2 6 mph 1012.9mb 71f 69f
7:00 2 6 mph 1012.9mb 71f 69f
6:54 5 6 mph 1012.8mb 71f 69f
6:48 2 6 mph 1012.8mb 71f 69f
6:42 3 6 mph 1012.7mb 71f 69f
6:36 5 6 mph 1012.6mb 71f 69f
6:30 3 5 mph 1012.6mb 71f 69f
6:24 3 5 mph 1012.6mb 71f 69f
6:18 3 5 mph 1012.6mb 71f 69f
6:12 3 5 mph 1012.6mb 71f 69f
6:06 2 5 mph 1012.6mb 71f 69f
6:00 3 3 mph 1012.5mb 71f 69f
5:54 3 3 mph 1012.5mb 71f 69f
5:48 2 3 mph 1012.5mb 71f 68f
5:42 2 5 mph 1012.6mb 71f 69f
5:36 3 5 mph 1012.6mb 71f 68f
5:30 3 3 mph 1012.6mb 71f 68f
5:24 3 5 mph 1012.6mb 71f 68f
5:18 5 5 mph 1012.6mb 71f 68f
5:12 3 3 mph 1012.5mb 71f 68f
5:06 3 3 mph 1012.6mb 71f 68f
5:00 3 6 mph 1012.5mb 71f 68f
4:54 3 6 mph 1012.5mb 71f 68f
4:48 5 6 mph 1012.5mb 71f 68f
4:42 5 7 mph 1012.5mb 71f 68f
4:36 3 5 mph 1012.4mb 71f 68f
4:30 2 2 mph 1012.5mb 71f 69f
4:24 1 5 mph 1012.6mb 71f 69f
4:18 2 3 mph 1012.6mb 70f 68f
4:12 1 5 mph 1012.6mb 71f 68f
4:06 3 8 mph 1012.6mb 71f 68f
4:00 5 6 mph 1012.6mb 71f 68f
3:54 5 6 mph 1012.6mb 71f 68f
3:48 5 6 mph 1012.5mb 71f 68f
3:42 5 5 mph 1012.5mb 71f 68f
3:36 3 6 mph 1012.6mb 70f 68f
3:30 2 5 mph 1012.6mb 70f 68f
3:24 5 6 mph 1012.6mb 70f 68f
3:18 3 6 mph 1012.6mb 70f 68f
3:12 3 6 mph 1012.5mb 70f 68f
3:06 5 7 mph 1012.6mb 70f 68f
3:00 3 5 mph 1012.7mb 70f 68f
2:54 5 6 mph 1012.7mb 70f 68f
2:48 3 6 mph 1012.7mb 70f 68f
2:42 5 8 mph 1012.7mb 70f 68f
2:36 6 7 mph 1012.6mb 70f 68f
2:30 6 7 mph 1012.6mb 70f 68f
2:24 2 5 mph 1012.7mb 70f 68f
2:18 3 5 mph 1012.8mb 70f 68f
2:12 2 3 mph 1012.8mb 70f 68f
2:06 2 3 mph 1012.8mb 70f 68f
2:00 2 5 mph 1012.8mb 70f 68f
1:54 3 3 mph 1012.9mb 70f 68f
1:48 3 6 mph 1012.9mb 70f 68f
1:42 5 6 mph 1012.9mb 70f 68f
1:36 5 7 mph 1012.9mb 70f 68f
1:30 5 6 mph 1012.9mb 71f 68f
1:24 6 6 mph 1012.9mb 71f 67f
1:18 6 6 mph 1012.9mb 71f 67f
1:12 5 6 mph 1013.1mb 72f 67f
1:06 5 6 mph 1013mb 72f 67f
1:00 6 7 mph 1013mb 72f 67f
12:54 6 7 mph 1013mb 72f 68f
12:48 2 5 mph 1013.1mb 72f 68f
12:42 3 6 mph 1013.2mb 72f 68f
12:36 6 8 mph 1013.3mb 72f 68f
12:30 7 8 mph 1013.2mb 72f 68f
12:24 6 8 mph 1013.2mb 71f 68f
12:18 8 8 mph 1013.3mb 71f 68f
12:12 6 7 mph 1013.3mb 72f 68f
12:06 6 8 mph 1013.3mb 72f 68f
12:00 6 8 mph 1013.4mb 72f 68f
Mo 09/18 11:54 6 7 mph 1013.3mb 72f 68f
11:48 6 7 mph 1013.3mb 72f 68f
11:42 5 7 mph 1013.3mb 72f -
11:36 6 8 mph 1013.3mb 72f -
11:30 7 9 mph 1013.3mb 72f 68f
11:24 3 6 mph 1013.2mb 72f 68f
11:18 3 6 mph 1013.2mb 72f 68f
11:12 5 7 mph 1013.1mb 72f 68f
11:06 3 6 mph 1013.1mb 72f 68f
11:00 5 6 mph 1013.1mb 72f 68f
10:54 6 6 mph 1013.1mb 72f 68f
10:48 3 5 mph 1013mb 72f 68f
10:42 5 5 mph 1013mb 72f 68f
10:36 5 5 mph 1012.9mb 72f 68f
10:30 3 6 mph 1013mb 72f 68f
10:24 5 5 mph 1013.1mb 72f 68f
10:18 5 6 mph 1013mb 72f 68f
10:12 5 6 mph 1012.9mb 72f 68f
10:06 3 6 mph 1012.8mb 72f 68f
10:00 3 6 mph 1012.8mb 72f 68f
9:54 5 6 mph 1012.8mb 72f 68f
9:48 3 6 mph 1012.8mb 72f 68f
9:42 6 7 mph 1012.9mb 72f 68f
9:36 5 6 mph 1012.9mb 71f 68f
9:30 5 6 mph 1012.9mb 71f 68f
9:24 6 6 mph 1012.8mb 72f 68f
9:18 3 5 mph 1012.8mb 71f 68f
9:12 5 6 mph 1012.9mb 72f 68f
9:06 5 6 mph 1012.9mb 71f 68f
9:00 5 6 mph 1012.9mb 71f 68f
8:54 5 5 mph 1012.8mb 72f 68f
8:48 5 6 mph 1012.7mb 71f 68f
8:42 5 5 mph 1012.7mb 71f 68f
8:36 5 6 mph 1012.7mb 71f 68f
8:30 3 6 mph 1012.7mb 71f 68f
8:24 5 6 mph 1012.7mb 71f 68f
8:18 5 5 mph 1012.7mb 71f 68f
8:12 5 6 mph 1012.7mb 71f 68f
8:06 3 5 mph 1012.6mb 71f 68f
8:00 3 5 mph 1012.5mb 72f 68f
7:54 3 6 mph 1012.4mb 72f 68f
7:48 5 6 mph 1012.4mb 72f 68f
7:42 5 6 mph 1012.4mb 71f 68f
7:36 5 5 mph 1012.3mb 72f 68f
7:30 5 6 mph 1012.4mb 72f 68f
7:24 3 6 mph 1012.3mb 72f 69f
7:18 5 6 mph 1012.4mb 72f 69f
7:12 6 7 mph 1012.4mb 72f 69f
7:06 6 7 mph 1012.4mb 72f 69f
7:00 5 6 mph 1012.3mb 72f 69f
6:54 6 7 mph 1012.3mb 72f 69f
6:48 6 8 mph - - -
6:42 5 7 mph 1012.2mb 72f 69f
6:36 6 7 mph 1012.2mb 72f 69f
6:30 5 6 mph 1012.2mb 72f 69f
6:24 5 6 mph 1012.2mb 72f 70f
6:18 5 6 mph 1012.2mb 72f 70f
6:12 5 6 mph 1012.2mb 72f 70f
6:06 5 6 mph 1012.2mb 73f 70f
6:00 6 7 mph 1012.2mb 73f 70f
5:54 3 6 mph 1012.3mb 73f 71f
5:48 6 8 mph 1012.3mb 73f 71f
5:42 7 8 mph 1012.4mb 73f 70f
5:36 6 8 mph 1012.4mb 73f 70f
5:30 7 9 mph 1012.5mb 73f 70f
5:24 7 8 mph 1012.6mb 73f 70f
5:18 6 8 mph 1012.6mb 73f 71f
5:12 8 9 mph 1012.6mb 73f 71f
5:06 6 8 mph 1012.7mb 73f 72f
5:00 7 8 mph 1012.7mb 73f 71f
4:54 7 8 mph 1012.6mb 73f 70f
4:48 7 9 mph - - -
4:42 7 9 mph - - -
4:36 7 8 mph - - -
4:30 6 8 mph 1012.6mb 73f 71f
4:24 6 7 mph 1012.6mb 73f 71f
4:18 7 8 mph 1012.7mb 73f 72f
4:12 6 8 mph 1012.7mb 73f 71f
4:06 6 8 mph 1012.7mb 73f 71f
4:00 7 8 mph 1012.7mb 73f 71f
3:54 7 9 mph 1012.6mb 73f 71f
3:48 7 9 mph 1012.7mb 73f 71f
3:42 6 8 mph 1012.8mb 73f 72f
3:36 6 8 mph 1012.8mb 73f 72f
3:30 7 8 mph 1012.8mb 73f 72f
3:24 7 8 mph 1012.9mb 73f 71f
3:18 6 9 mph 1012.9mb 73f 71f
3:12 8 9 mph 1012.9mb 73f 71f